Minneapolis, MN

6:25 AM CDT on August 18, 2017 (GMT -0500)
Minneapolis-Saint Paul International

Weather History for KMSP - July, 2013

Change the Weather History Date:

Tuesday, July 9, 2013

  Actual Average Record
Temperature  
Mean Temperature 79 °F 74 °F  
Max Temperature 87 °F 84 °F 99 °F (1976)
Min Temperature 71 °F 64 °F 48 °F (1895)
Degree Days  
Heating Degree Days 0 0  
Month to date heating degree days 0 0  
Since 1 June heating degree days 42 44  
Since 1 July heating degree days 0 0  
Cooling Degree Days 14 9  
Month to date cooling degree days 116 79  
Year to date cooling degree days 333 279  
Since 1 June cooling degree days 280 237  
Growing Degree Days 29 (Base 50)    
Moisture  
Dew Point 69 °F    
Average Humidity 69    
Maximum Humidity 82    
Minimum Humidity 55    
Precipitation  
Precipitation 0.34 in 0.14 in 2.55 in (2000)
Month to date precipitation 0.37 1.15  
Year to date precipitation 21.23 14.98  
Snow  
Snow 0.00 in 0.00 in 0.00 in ()
Month to date snowfall 0.0 0.0  
Since 1 June snowfall 0.0 0.0  
Since 1 July snowfall 0.0 0.0  
Snow Depth 0.00 in    
Sea Level Pressure  
Sea Level Pressure 29.84 in    
Wind  
Wind Speed 12 mph (SW)    
Max Wind Speed 24 mph    
Max Gust Speed 33 mph    
Visibility 9 miles    
Events Rain , Thunderstorm    
T = Trace of Precipitation, MM = Missing Value Source: NWS Daily Summary

Daily Weather History Graph

Daily Weather History Graph

Search for Another Location

Airport or City:

Trip Planner

Search our weather history database for the weather conditions in past years. The results will help you decide how hot, cold, wet, or windy it might be!

Date:

Astronomy

Jul. 09, 2013 Rise Set
Actual Time 5:36 AM CDT 8:59 PM CDT
Civil Twilight 4:59 AM CDT 9:36 PM CDT
Nautical Twilight 4:11 AM CDT 10:23 PM CDT
Astronomical Twilight 3:11 AM CDT 11:23 PM CDT
Moon 7:06 AM CDT (7/9) 9:30 PM CDT (7/9)
Length of Visible Light 16h 36m
Length of Day
15h 23m
New Moon, 2% of the Moon is Illuminated
Jul 9
New Moon
Jul 15
First Quarter
Jul 22
Full
Jul 29
Last Quarter
Aug 6
New

Hourly Weather History & Observations

Time (CDT) Temp. Heat Index Dew Point Humidity Pressure Visibility Wind Dir Wind Speed Gust Speed Precip Events Conditions
12:53 AM 78.1 °F - 69.1 °F 74% 29.94 in 10.0 mi ENE 4.6 mph - N/A   Mostly Cloudy
1:53 AM 77.0 °F - 70.0 °F 79% 29.93 in 10.0 mi East 5.8 mph - N/A   Mostly Cloudy
2:53 AM 77.0 °F - 69.1 °F 76% 29.91 in 10.0 mi ESE 6.9 mph - N/A   Mostly Cloudy
3:53 AM 75.9 °F - 69.1 °F 79% 29.88 in 10.0 mi ESE 8.1 mph - N/A   Partly Cloudy
4:53 AM 75.9 °F - 70.0 °F 82% 29.88 in 10.0 mi SE 5.8 mph - N/A   Mostly Cloudy
5:53 AM 75.9 °F - 70.0 °F 82% 29.85 in 9.0 mi SE 10.4 mph - N/A   Mostly Cloudy
6:53 AM 77.0 °F - 70.0 °F 79% 29.81 in 8.0 mi SE 10.4 mph - N/A   Overcast
7:53 AM 77.0 °F - 71.1 °F 82% 29.82 in 8.0 mi SE 3.5 mph - N/A   Overcast
8:07 AM 75.2 °F - 71.6 °F 89% 29.83 in 7.0 mi South 5.8 mph - N/A Thunderstorm Thunderstorm
8:19 AM 75.2 °F - 71.6 °F 89% 29.85 in 1.5 mi WSW 23.0 mph 33.4 mph 0.06 in Rain , Thunderstorm Heavy Thunderstorms and Rain
8:26 AM 73.4 °F - 69.8 °F 88% 29.85 in 1.0 mi SW 10.4 mph 33.4 mph 0.24 in Rain , Thunderstorm Heavy Thunderstorms and Rain
8:33 AM 71.6 °F - 69.8 °F 94% 29.85 in 5.0 mi WSW 11.5 mph 19.6 mph 0.27 in Rain , Thunderstorm Light Thunderstorms and Rain
8:53 AM 72.0 °F - 69.1 °F 91% 29.81 in 7.0 mi SE 3.5 mph - 0.31 in Rain , Thunderstorm Thunderstorms and Rain
9:03 AM 71.6 °F - 69.8 °F 94% 29.79 in 8.0 mi East 9.2 mph - 0.02 in Rain Light Rain
9:10 AM 71.6 °F - 69.8 °F 94% 29.76 in 8.0 mi ENE 15.0 mph 21.9 mph 0.03 in Rain Light Rain
9:51 AM 71.6 °F - 69.8 °F 94% 29.79 in 10.0 mi SE 11.5 mph - 0.03 in   Overcast
9:53 AM 72.0 °F - 70.0 °F 93% 29.79 in 10.0 mi SE 10.4 mph - 0.03 in   Overcast
10:03 AM 71.6 °F - 69.8 °F 94% 29.84 in 10.0 mi South 4.6 mph - N/A   Overcast
10:42 AM 73.4 °F - 69.8 °F 88% 29.85 in 10.0 mi Variable 4.6 mph - N/A   Mostly Cloudy
10:53 AM 75.0 °F - 70.0 °F 84% 29.83 in 10.0 mi SW 6.9 mph - N/A   Mostly Cloudy
11:31 AM 77.0 °F - 69.8 °F 78% 29.84 in 10.0 mi SW 9.2 mph - N/A   Scattered Clouds
11:53 AM 80.1 °F 82.9 °F 69.1 °F 69% 29.82 in 10.0 mi SW 11.5 mph 18.4 mph N/A   Scattered Clouds
12:53 PM 82.9 °F 85.4 °F 66.9 °F 58% 29.81 in 10.0 mi West 19.6 mph 25.3 mph N/A   Mostly Cloudy
1:53 PM 82.9 °F 85.4 °F 66.9 °F 58% 29.80 in 10.0 mi West 23.0 mph 29.9 mph N/A   Mostly Cloudy
2:53 PM 84.0 °F 87.0 °F 68.0 °F 58% 29.81 in 10.0 mi West 17.3 mph 25.3 mph N/A   Mostly Cloudy
3:53 PM 84.9 °F 88.8 °F 69.1 °F 59% 29.81 in 10.0 mi West 15.0 mph 25.3 mph N/A   Scattered Clouds
4:53 PM 86.0 °F 90.1 °F 69.1 °F 57% 29.81 in 10.0 mi West 16.1 mph 24.2 mph N/A   Scattered Clouds
5:53 PM 87.1 °F 91.3 °F 69.1 °F 55% 29.81 in 10.0 mi West 19.6 mph 27.6 mph N/A   Scattered Clouds
6:53 PM 84.9 °F 88.8 °F 69.1 °F 59% 29.82 in 10.0 mi West 16.1 mph 23.0 mph N/A   Scattered Clouds
7:53 PM 84.0 °F 87.8 °F 69.1 °F 61% 29.83 in 10.0 mi West 15.0 mph 24.2 mph N/A   Scattered Clouds
8:53 PM 81.0 °F 82.7 °F 64.9 °F 58% 29.85 in 10.0 mi WNW 16.1 mph 21.9 mph N/A   Scattered Clouds
9:53 PM 79.0 °F - 66.0 °F 64% 29.87 in 10.0 mi WNW 10.4 mph - N/A   Scattered Clouds
10:53 PM 77.0 °F - 64.4 °F 65% 29.88 in 10.0 mi WNW 16.1 mph 26.5 mph N/A   Scattered Clouds
11:53 PM 75.0 °F - 64.9 °F 71% 29.90 in 10.0 mi NW 13.8 mph - N/A   Partly Cloudy